Location: Unspecified
(0.0000°N, 0.0000°E)
Time: 17:12:27
(UTC+00:00)

deb Briz - Pass Details

Date: 20 February 2026
Orbit: 1598 x 2046 km, 64.9° (Epoch: 8 March)

Event Time Altitude Azimuth Distance (km) Brightness Sun altitude
Rises 04:05:20 0° 195° (SSW) 5,265 ? -31.5°
Reaches altitude 10° 04:08:43 10° 193° (SSW) 4,209 ? -30.6°
Maximum altitude 04:19:13 68° 111° (ESE) 1,840 ? -28.1°
Drops below altitude 10° 04:28:49 10° 30° (NNE) 3,876 ? -25.7°
Sets 04:31:47 0° 28° (NNE) 4,830 ? -25.0°
